Location: Newark
(49.5647°N, 8.2922°E)
Time: 09:21:14
(UTC+00:00)

Transit 2A - Pass Details

Date: 27 February 2020
Orbit: 597 x 961 km, 66.7° (Epoch: 28 March)

Event Time Altitude Azimuth Distance (km) Brightness Sun altitude
Rises 14:34:32 0° 289° (WNW) 2,878 9.4 20.6°
Reaches altitude 10° 14:38:15 10° 322° (NW) 2,023 8.2 20.2°
Maximum altitude 14:39:58 12° 344° (NNW) 1,927 7.9 20.0°
Drops below altitude 10° 14:41:44 10° 7° (N) 2,086 7.9 19.8°
Sets 14:45:45 0° 39° (NE) 3,090 8.5 19.3°
